Back to catalog

INTELSAT 33E DEB

AliveMEO
NORAD 64396·DEBRIS· XX

Launched Aug 24, 2016 from Guiana Space Centre

Loading…

Next Passes (next 24 hours)

TLE

FreshSource: Space-Track

Epoch: Sep 13, 2026, 14:21 UTC

1 64396U 16053AA  26256.59826177  .00000001  00000-0  00000-0 0  9990
2 64396   1.8049  81.4040 0121677  65.3151 296.7568  0.98613057  6855

Track INTELSAT 33E DEB in real time with AllMySat

Download on the App Store